Weather History for Gulkana, AK

Change the Weather History Date:

Monday, October 8, 2012

  Actual Average Record
Temperature  
Mean Temperature 44 °F -  
Max Temperature 48 °F 43 °F 57 °F (1993)
Min Temperature 39 °F 27 °F -5 °F (1958)
Degree Days  
Heating Degree Days 22    
Moisture  
Dew Point 42 °F    
Average Humidity 92    
Maximum Humidity 97    
Minimum Humidity 77    
Precipitation  
Precipitation 0.00 in - - ()
Sea Level Pressure  
Sea Level Pressure 30.18 in    
Wind  
Wind Speed 3 mph (West)    
Max Wind Speed 7 mph    
Max Gust Speed -    
Visibility 10 miles    
Events Fog    
Averages and records for this station are not official NWS values.
T = Trace of Precipitation, MM = Missing Value Source: NWS Daily Summary

Daily Weather History Graph

Daily Weather History Graph

Search for Another Location

Airport:

Trip Planner

Search our weather history database for the weather conditions in past years. The results will help you decide how hot, cold, wet, or windy it might be!

Date:

Astronomy

Oct. 08, 2012 Rise Set
Actual Time 8:09 AM AKDT 6:47 PM AKDT
Civil Twilight 7:24 AM AKDT 7:32 PM AKDT
Nautical Twilight 6:33 AM AKDT 8:23 PM AKDT
Astronomical Twilight 5:39 AM AKDT 9:16 PM AKDT
Moon No Moon Rise 4:31 PM AKDT (10/8)
Length of Visible Light 12h 07m
Length of Day
10h 38m
Last Quarter, 45% of the Moon is Illuminated
Oct 8
Last Quarter
Oct 15
New
Oct 21
First Quarter
Oct 29
Full
Nov 6
Last Quarter

Hourly Weather History & Observations

Time (AKDT) Temp. Windchill Dew Point Humidity Pressure Visibility Wind Dir Wind Speed Gust Speed Precip Events Conditions
12:28 AM 42.8 °F 41.1 °F 41.0 °F 93% 30.19 in 10.0 mi SSE 3.5 mph - N/A   Mostly Cloudy
12:53 AM 42.1 °F 40.2 °F 41.0 °F 96% 30.25 in 10.0 mi SW 3.5 mph - N/A   Partly Cloudy
1:53 AM 43.0 °F 40.3 °F 42.1 °F 97% 30.23 in 10.0 mi WSW 4.6 mph - N/A   Overcast
2:32 AM 42.8 °F 38.6 °F 41.0 °F 93% 30.18 in 10.0 mi SW 6.9 mph - N/A   Scattered Clouds
2:53 AM 43.0 °F 40.3 °F 41.0 °F 93% 30.22 in 10.0 mi SW 4.6 mph - N/A   Partly Cloudy
3:53 AM 41.0 °F 39.0 °F 39.0 °F 93% 30.22 in 10.0 mi West 3.5 mph - N/A   Clear
4:53 AM 42.1 °F 38.4 °F 41.0 °F 96% 30.19 in 10.0 mi South 5.8 mph - N/A   Clear
5:53 AM 39.0 °F 36.8 °F 37.9 °F 96% 30.20 in 10.0 mi WNW 3.5 mph - N/A   Overcast
6:53 AM 42.1 °F 39.2 °F 39.9 °F 92% 30.19 in 10.0 mi South 4.6 mph - N/A   Overcast
7:53 AM 41.0 °F - 39.9 °F 96% 30.19 in 10.0 mi Calm Calm - N/A Fog Overcast
8:53 AM 39.9 °F - 39.0 °F 97% 30.21 in 10.0 mi Calm Calm - N/A Fog Mostly Cloudy
9:53 AM 39.9 °F - 39.0 °F 97% 30.20 in 10.0 mi Calm Calm - N/A Fog Overcast
10:53 AM 42.1 °F - 39.9 °F 92% 30.19 in 10.0 mi Calm Calm - N/A Fog Overcast
11:53 AM 44.1 °F 40.8 °F 42.1 °F 93% 30.18 in 10.0 mi South 5.8 mph - N/A Fog Overcast
12:53 PM 46.0 °F - 43.0 °F 89% 30.18 in 10.0 mi Calm Calm - N/A Fog Overcast
1:53 PM 48.0 °F - 43.0 °F 83% 30.16 in 10.0 mi Calm Calm - N/A   Mostly Cloudy
2:53 PM 48.0 °F - 43.0 °F 83% 30.16 in 10.0 mi Calm Calm - N/A   Mostly Cloudy
3:53 PM 48.0 °F - 43.0 °F 83% 30.15 in 10.0 mi North 5.8 mph - N/A   Mostly Cloudy
4:53 PM 46.9 °F - 44.1 °F 90% 30.14 in 10.0 mi NNE 5.8 mph - N/A   Mostly Cloudy
5:53 PM 46.9 °F - 44.1 °F 90% 30.14 in 10.0 mi NNE 5.8 mph - N/A   Mostly Cloudy
6:53 PM 46.0 °F 44.8 °F 44.1 °F 93% 30.15 in 10.0 mi NNE 3.5 mph - N/A   Mostly Cloudy
7:53 PM 45.0 °F 42.6 °F 43.0 °F 93% 30.14 in 10.0 mi NW 4.6 mph - N/A   Mostly Cloudy
8:53 PM 45.0 °F 43.5 °F 43.0 °F 93% 30.14 in 10.0 mi NW 3.5 mph - N/A   Mostly Cloudy
9:26 PM 44.6 °F 42.2 °F 42.8 °F 93% 30.10 in 10.0 mi NW 4.6 mph - N/A   Mostly Cloudy
9:53 PM 44.1 °F 42.5 °F 43.0 °F 96% 30.16 in 10.0 mi NW 3.5 mph - N/A   Overcast
10:53 PM 44.1 °F - 42.1 °F 93% 30.15 in 10.0 mi Calm Calm - N/A   Overcast